Flag for Canada Weather past 2 weeks in Selkirk, Manitoba, Canada

Now
63 °F

Mild.


Feels Like: 63 °F
Forecast: 57 / 78 °F
Wind: 5 mph from Southwest

Location: Winnipeg The Forks

Current Time: Jul 30, 2015 at 7:49:11 AM

Latest Report: Jul 30, 2015 at 7:00 AM


Visibility: N/A

Pressure: 29.89 "Hg

Humidity: 77%

Dew point: 56 °F

Location of SelkirkLocation

Historic Weather in Selkirk — Graph

°F

Selkirk temperature yesterday

Maximum temperature yesterday: 76 °F (at 5:00 PM)
Minimum temperature yesterday: 61 °F (at 12:00 AM)
Average temperature yesterday: 68 °F

Past Weeks' High & Low Weather Summary

 TemperatureHumidityPressure
High89 °F (Jul 26, 5:00 PM)97% (Jul 24, 3:00 AM)29.96 "Hg (Jul 24, 3:00 AM)
Low56 °F (Jul 19, 4:00 AM)31% (Jul 25, 6:00 PM)29.27 "Hg (Jul 29, 1:00 AM)
Average72 °F68%29.73 "Hg
* Reported Jul 15 6:00 AM — Jul 30 6:00 AM, Selkirk, Weather by CustomWeather, © 2015

Note: Actual official high and low records may vary slightly from our data, if they occured in-between our weather recording intervals... More about our weather records

Advertising

Selkirk weather history for previous 24 hours

 ConditionsComfort  
Time TempWeatherWind HumidityBarometerVisibility
6:00 AM
Thu, Jul 30
62 °FMild.3 mph81%29.88 "HgN/A
5:00 AM62 °FCool.5 mph80%29.88 "HgN/A
4:00 AM63 °FMild.3 mph80%29.87 "HgN/A
3:00 AM64 °FMild.1 mph77%29.87 "HgN/A
2:00 AM65 °FMild.3 mph72%29.87 "HgN/A
1:00 AM66 °FMild.3 mph72%29.86 "HgN/A
12:00 AM66 °FMild.3 mph72%29.86 "HgN/A
10:00 PM
Wed, Jul 29
71 °FMild.3 mph60%29.82 "HgN/A
9:00 PM73 °FMild.5 mph55%29.80 "HgN/A
8:00 PM75 °FMild.5 mph49%29.78 "HgN/A
6:00 PM76 °FMild.7 mph47%29.75 "HgN/A
5:00 PM76 °FMild.9 mph45%29.73 "HgN/A
4:00 PM76 °FMild.10 mph45%29.71 "HgN/A
3:00 PM75 °FMild.12 mph45%29.67 "HgN/A
2:00 PM74 °FMild.8 mph51%29.64 "HgN/A
1:00 PM73 °FMild.8 mph53%29.61 "HgN/A
12:00 PM70 °FMild.8 mph62%29.59 "HgN/A
11:00 AM66 °FMild.5 mph74%29.57 "HgN/A
10:00 AM62 °FCool.7 mph89%29.53 "HgN/A
9:00 AM62 °FCool.7 mph87%29.50 "HgN/A
7:00 AM62 °FMild.7 mph87%29.43 "HgN/A
Weather by CustomWeather, © 2015

See weather overviewHow to use our weather pages